User: anonymous
Location: Unspecified
(0.0000°N, 0.0000°E)
Time: 11:18:20
(UTC+02:00)
Language:

BREEZE-M DEB (TANK) - Orbit

View from above orbital plane
View from above orbital plane
View from above satellite
View from above satellite

Ground track
Ground track

The orbit data is extracted from the following two-line orbital elements,

1 33374U 08044B   14112.11854267  .00002386  00000-0  91874-3 0  6076
2 33374 049.4759 009.8317 5449036 115.4302 012.0486 04.83806239 98028
Epoch (UTC): 22 April 2014 02:50:42
Eccentricity: 0.5449036
inclination: 49.4759°
perigee height: 342 km
apogee height: 16435 km
right ascension of ascending node: 9.8317°
argument of perigee: 115.4302°
revolutions per day: 4.83806239
mean anomaly at epoch: 12.0486°
orbit number at epoch: 9802

The dashed part of the orbit path shows where the satellite is in the earth's shadow,  

DLR